This is the latest recevied weather packets stored in our database for station/object N4UUJ-1. If no packets are shown the sender has not sent any weather packets the latest 10 day(s).
| Time | Temp. | Humidity | Pressure | Rain* | Wind** | Luminosity | Snow |
|---|---|---|---|---|---|---|---|
| 1788445491 | 30° C | 75% | 1022.2 hPa | 0 mm | - | - | - |
| 1788443690 | 28.89° C | 75% | 1022.1 hPa | 0 mm | - | - | - |
| 1788441889 | 24.44° C | 75% | 1022.2 hPa | 0 mm | - | - | - |
| 1788440088 | 21.67° C | 75% | 1022.1 hPa | 0 mm | - | - | - |
| 1788438287 | 19.44° C | 75% | 1022 hPa | 0 mm | - | - | - |
| 1788436491 | 19.44° C | 75% | 1022 hPa | 0 mm | - | - | - |
| 1788434685 | 19.44° C | 75% | 1021.7 hPa | 0 mm | - | - | - |
| 1788432884 | 19.44° C | 75% | 1021.6 hPa | 0 mm | - | - | - |
| 1788431083 | 19.44° C | 75% | 1021.5 hPa | 0 mm | - | - | - |
| 1788429282 | 19.44° C | 75% | 1021.5 hPa | 0 mm | - | - | - |
| 1788427481 | 19.44° C | 75% | 1021.4 hPa | 0 mm | - | - | - |
| 1788425680 | 19.44° C | 75% | 1021.4 hPa | 0 mm | - | - | - |
| 1788423879 | 19.44° C | 75% | 1021.4 hPa | 0 mm | - | - | - |
| 1788422078 | 19.44° C | 75% | 1021.3 hPa | 0 mm | - | - | - |
| 1788420277 | 20° C | 75% | 1021.2 hPa | 0 mm | - | - | - |
| 1788418476 | 20° C | 75% | 1021.2 hPa | 0 mm | - | - | - |
| 1788416675 | 20° C | 75% | 1021.5 hPa | 0 mm | - | - | - |
| 1788414874 | 20° C | 75% | 1021.7 hPa | 0 mm | - | - | - |
| 1788413073 | 20.56° C | 75% | 1021.6 hPa | 0 mm | - | - | - |
| 1788411272 | 21.11° C | 75% | 1021.6 hPa | 0 mm | - | - | - |
| 1788409471 | 21.11° C | 75% | 1021.6 hPa | 0 mm | - | - | - |
| 1788407670 | 21.67° C | 75% | 1021.6 hPa | 0 mm | - | - | - |
| 1788405869 | 21.67° C | 75% | 1021.7 hPa | 0 mm | - | - | - |
| 1788404068 | 22.22° C | 75% | 1021.8 hPa | 0 mm | - | - | - |
| 1788402267 | 22.78° C | 75% | 1021.7 hPa | 0 mm | - | - | - |
* Rain latest hour (hover to see other rain measurements)
** Current wind speed in m/s (hover to see current wind gust speed)